View from above orbital plane
|
View from above satellite
|
Ground track
|
The orbit data is extracted from the following two-line orbital elements,
1 20580U 90037B 21015.67925567 .00000496 00000-0 19084-4 0 9995
2 20580 28.4712 355.8616 0002574 211.9126 311.1585 15.09535467487991
Epoch (UTC): | 15 January 2021 16:18:07 |
Eccentricity: | 0.0002574 |
inclination: | 28.4712° |
perigee height: | 536 km |
apogee height: | 539 km |
right ascension of ascending node: | 355.8616° |
argument of perigee: | 211.9126° |
revolutions per day: | 15.09535467 |
mean anomaly at epoch: | 311.1585° |
orbit number at epoch: | 48799 |
The dashed part of the orbit path shows where the satellite is in the earth's shadow,
|
|